| time (UTC) | temp F | wind direction | speed MPH | gust MPH | rain 1hr in | rain 24hr in | rain mn in | humidity % | barometer mb |
| 20260903013202 | 60 | 253 | 0.0 | 2.0 | 0.00 | 0.00 | 0.00 | 80 | 1023.6 |
| 20260903011701 | 59 | 253 | 0.0 | 0.0 | 0.00 | 0.00 | 0.00 | 82 | 1023.6 |
| 20260903010205 | 60 | 253 | 0.0 | 0.0 | 0.00 | 0.00 | 0.00 | 81 | 1023.4 |
| 20260903004707 | 59 | 253 | 0.0 | 0.0 | 0.00 | 0.00 | 0.00 | 83 | 1023.5 |
| 20260903001702 | 59 | 253 | 0.0 | 0.0 | 0.00 | 0.00 | 0.00 | 82 | 1023.4 |
| 20260903000204 | 60 | 253 | 0.0 | 0.0 | 0.00 | 0.00 | 0.00 | 81 | 1023.4 |
| 20260902234701 | 61 | 253 | 0.0 | 0.0 | 0.00 | 0.00 | 0.00 | 80 | 1023.4 |
| 20260902233203 | 61 | 253 | 0.0 | 0.0 | 0.00 | 0.00 | 0.00 | 78 | 1023.4 |
| 20260902231702 | 62 | 253 | 0.0 | 1.0 | 0.00 | 0.00 | 0.00 | 77 | 1023.4 |
| 20260902230201 | 62 | 253 | 0.0 | 1.0 | 0.00 | 0.00 | 0.00 | 77 | 1023.4 |
| 20260902224701 | 62 | 253 | 0.0 | 2.0 | 0.00 | 0.00 | 0.00 | 75 | 1023.5 |
| 20260902221703 | 63 | 253 | 0.0 | 1.0 | 0.00 | 0.00 | 0.00 | 74 | 1023.2 |
| 20260902220202 | 63 | 253 | 0.0 | 0.0 | 0.00 | 0.00 | 0.00 | 74 | 1023.1 |
| 20260902214706 | 61 | 253 | 0.0 | 0.0 | 0.00 | 0.00 | 0.00 | 77 | 1023.0 |
| 20260902213204 | 61 | 253 | 0.0 | 0.0 | 0.00 | 0.00 | 0.00 | 79 | 1022.8 |
| 20260902211702 | 61 | 253 | 0.0 | 0.0 | 0.00 | 0.00 | 0.00 | 79 | 1022.7 |
| 20260902210201 | 61 | 253 | 0.0 | 0.0 | 0.00 | 0.00 | 0.00 | 77 | 1022.6 |
| 20260902204700 | 63 | 253 | 0.0 | 0.0 | 0.00 | 0.00 | 0.00 | 74 | 1022.6 |
| 20260902203203 | 63 | 253 | 0.0 | 1.0 | 0.00 | 0.00 | 0.00 | 72 | 1022.6 |
| 20260902200159 | 65 | 253 | 0.0 | 0.0 | 0.00 | 0.00 | 0.00 | 69 | 1022.6 |
| 20260902194658 | 65 | 253 | 0.0 | 0.0 | 0.00 | 0.00 | 0.00 | 69 | 1022.4 |
| 20260902193159 | 66 | 253 | 0.0 | 0.0 | 0.00 | 0.00 | 0.00 | 66 | 1022.3 |
| 20260902191657 | 68 | 253 | 0.0 | 0.0 | 0.00 | 0.00 | 0.00 | 62 | 1022.2 |
| 20260902190155 | 68 | 253 | 0.0 | 1.0 | 0.00 | 0.00 | 0.00 | 61 | 1022.1 |
| 20260902181655 | 71 | 254 | 0.0 | 3.0 | 0.00 | 0.00 | 0.00 | 58 | 1022.0 |
| 20260902180200 | 70 | 284 | 0.0 | 0.0 | 0.00 | 0.00 | 0.00 | 60 | 1021.6 |
| 20260902174655 | 71 | 284 | 0.0 | 1.0 | 0.00 | 0.00 | 0.00 | 59 | 1021.4 |
| 20260902173200 | 73 | 284 | 0.0 | 3.0 | 0.00 | 0.00 | 0.00 | 54 | 1021.4 |
| 20260902171657 | 74 | 289 | 0.0 | 2.0 | 0.00 | 0.00 | 0.00 | 53 | 1021.3 |
| 20260902164653 | 75 | 43 | 1.0 | 7.0 | 0.00 | 0.00 | 0.00 | 51 | 1021.3 |
| 20260902163154 | 75 | 207 | 1.0 | 7.0 | 0.00 | 0.00 | 0.00 | 51 | 1021.2 |
| 20260902161653 | 76 | 207 | 3.0 | 8.0 | 0.00 | 0.00 | 0.00 | 49 | 1021.2 |
| 20260902160153 | 77 | 282 | 1.0 | 4.0 | 0.00 | 0.00 | 0.00 | 48 | 1021.1 |
| 20260902154656 | 77 | 223 | 2.0 | 8.0 | 0.00 | 0.00 | 0.00 | 48 | 1021.0 |
| 20260902150152 | 78 | 326 | 3.0 | 9.0 | 0.00 | 0.00 | 0.00 | 44 | 1021.4 |
| 20260902143154 | 79 | 257 | 3.0 | 10.0 | 0.00 | 0.00 | 0.00 | 43 | 1021.4 |
| 20260902141652 | 80 | 167 | 1.0 | 7.0 | 0.00 | 0.00 | 0.00 | 43 | 1021.6 |
| 20260902140155 | 80 | 134 | 3.0 | 12.0 | 0.00 | 0.00 | 0.00 | 42 | 1021.6 |
| 20260902134759 | 80 | 165 | 4.0 | 12.0 | 0.00 | 0.00 | 0.00 | 44 | 1021.6 |
| 20260902130155 | 79 | 242 | 2.0 | 8.0 | 0.00 | 0.00 | 0.00 | 44 | 1022.0 |
| 20260902124656 | 79 | 153 | 2.0 | 9.0 | 0.00 | 0.00 | 0.00 | 49 | 1022.0 |
| 20260902123154 | 79 | 310 | 2.0 | 7.0 | 0.00 | 0.00 | 0.00 | 46 | 1022.1 |
| 20260902121656 | 79 | 282 | 2.0 | 5.0 | 0.00 | 0.00 | 0.00 | 47 | 1022.0 |
| 20260902120155 | 77 | 16 | 2.0 | 7.0 | 0.00 | 0.00 | 0.00 | 49 | 1022.1 |
| 20260902114656 | 76 | 240 | 2.0 | 6.0 | 0.00 | 0.00 | 0.00 | 52 | 1022.3 |
| 20260902113149 | 75 | 259 | 1.0 | 4.0 | 0.00 | 0.00 | 0.00 | 54 | 1022.6 |
| 20260902111648 | 76 | 299 | 1.0 | 4.0 | 0.00 | 0.00 | 0.00 | 55 | 1022.5 |
| 20260902110148 | 74 | 33 | 1.0 | 4.0 | 0.00 | 0.00 | 0.00 | 55 | 1022.6 |
| 20260902104649 | 75 | 221 | 1.0 | 4.0 | 0.00 | 0.00 | 0.00 | 56 | 1022.7 |
| 20260902101653 | 73 | 276 | 1.0 | 3.0 | 0.00 | 0.00 | 0.00 | 58 | 1022.8 |
| 20260902094649 | 74 | 331 | 0.0 | 2.0 | 0.00 | 0.00 | 0.00 | 57 | 1023.1 |
| 20260902093149 | 73 | 241 | 1.0 | 3.0 | 0.00 | 0.00 | 0.00 | 57 | 1023.2 |
| 20260902091649 | 74 | 250 | 1.0 | 3.0 | 0.00 | 0.00 | 0.00 | 59 | 1023.2 |
| 20260902090149 | 74 | 215 | 1.0 | 3.0 | 0.00 | 0.00 | 0.00 | 57 | 1023.1 |
| 20260902084650 | 71 | 49 | 1.0 | 3.0 | 0.00 | 0.00 | 0.00 | 62 | 1023.3 |
| 20260902083148 | 71 | 258 | 1.0 | 3.0 | 0.00 | 0.00 | 0.00 | 64 | 1023.3 |
| 20260902081650 | 68 | 63 | 0.0 | 0.0 | 0.00 | 0.00 | 0.00 | 67 | 1023.3 |
| 20260902080149 | 69 | 65 | 0.0 | 0.0 | 0.00 | 0.00 | 0.00 | 66 | 1023.3 |
| 20260902074650 | 68 | 195 | 0.0 | 0.0 | 0.00 | 0.00 | 0.00 | 70 | 1023.4 |
| 20260902073147 | 67 | 195 | 0.0 | 0.0 | 0.00 | 0.00 | 0.00 | 73 | 1023.3 |
| 20260902071645 | 65 | 195 | 1.0 | 3.0 | 0.00 | 0.00 | 0.00 | 77 | 1023.3 |
| 20260902070144 | 63 | 195 | 0.0 | 2.0 | 0.00 | 0.00 | 0.00 | 82 | 1023.3 |
| 20260902064645 | 59 | 195 | 0.0 | 0.0 | 0.00 | 0.00 | 0.00 | 88 | 1023.2 |
| 20260902063147 | 57 | 195 | 0.0 | 0.0 | 0.00 | 0.00 | 0.00 | 90 | 1023.2 |
| 20260902061649 | 56 | 194 | 0.0 | 0.0 | 0.00 | 0.00 | 0.00 | 92 | 1023.2 |
| 20260902060147 | 54 | 194 | 0.0 | 0.0 | 0.00 | 0.00 | 0.00 | 94 | 1023.1 |
| 20260902054646 | 53 | 195 | 0.0 | 0.0 | 0.00 | 0.00 | 0.00 | 94 | 1023.0 |
| 20260902051641 | 52 | 194 | 0.0 | 0.0 | 0.00 | 0.00 | 0.00 | 95 | 1022.8 |
| 20260902050140 | 51 | 194 | 0.0 | 0.0 | 0.00 | 0.00 | 0.00 | 95 | 1022.9 |
| 20260902043140 | 51 | 194 | 0.0 | 0.0 | 0.00 | 0.00 | 0.00 | 95 | 1022.7 |
| 20260902033142 | 51 | 194 | 0.0 | 0.0 | 0.00 | 0.00 | 0.00 | 94 | 1022.6 |
| 20260902031638 | 52 | 194 | 0.0 | 0.0 | 0.00 | 0.00 | 0.00 | 93 | 1022.9 |
| 20260902030138 | 53 | 194 | 0.0 | 0.0 | 0.00 | 0.00 | 0.00 | 93 | 1022.6 |
| 20260902024638 | 52 | 194 | 0.0 | 0.0 | 0.00 | 0.00 | 0.00 | 94 | 1022.9 |
| 20260902023139 | 52 | 194 | 0.0 | 0.0 | 0.00 | 0.00 | 0.00 | 93 | 1023.1 |
| 20260902021639 | 52 | 194 | 0.0 | 0.0 | 0.00 | 0.00 | 0.00 | 93 | 1023.1 |
| 20260902020138 | 53 | 194 | 0.0 | 0.0 | 0.00 | 0.00 | 0.00 | 93 | 1023.2 |
| 20260902014640 | 53 | 194 | 0.0 | 0.0 | 0.00 | 0.00 | 0.00 | 93 | 1023.1 |